Find Starlink 5586

NORAD ID: 55376 Int'l Des: 2023-013 Owner: SPXS Country: US Constellation: starlink operational
LEOCIRCULAR

リアルタイム位置

3D地球を読み込み中...

Starlink 5586について

説明を読み込み中...

次回通過

Passes for default location (London). Set your location on the main map for personalized predictions.

高度履歴

Loading altitude history...

軌道要素

1 55376U 23013AX 26107.27071662 -.00000048 00000-0 78771-5 0 9990
2 55376 43.0026 70.8126 0000819 268.6926 91.3832 15.26742708177748
Epoch: Apr 17, 2026 • Age: 13 hours

現在のステータス

高度 484.7 km
速度 7.63 km/s
衛星直下点 11.67°N, 52.36°W
打ち上げ日 Jan 26, 2023
運用期間 3.2 years
タイプ internet

技術仕様

分類 Payload
質量 305.00 kg
乾燥質量 290.00 kg
総質量 305.00 kg
長さ 0.20 m
直径 2.80 m
スパン 9.00 m
形状 Box + pan
製造者 SPXS
バスタイプ Starlink
フェーズステータス In Orbit
所有者/国 SPXS/US

Most Searched